Погода в Шерегеше

Россия / Кемеровская область (Кузбасс)     52°55′16″N   87°59′22″E
темп.,
°C
ветер,
м/с
пор.,
м/с
влажн.,
%
обл.,
%
осадки,
мм/ч
давл.,
гПа
погр.,
м
19 января, вт
вт1901:00−9зюз2696100 4.4 1014554
04:00−11з2396100 0.8 1016175
07:00−15зюз2298100 0.9 101850
10:00−16юз239894 0.0 102166
13:00−12зюз248771 0.0 1021541
16:00−13зюз248999 0.0 1020514
19:00−17юз2296100 0.0 102323
22:00−17зюз2295100 0.0 102324
20 января, ср
ср2001:00−18зюз2293100 0.0 102425
04:00−21з119947 0.0 102620
07:00−23юз119724 0.0 102920
10:00−22юв11910 0.0 103020
13:00−13вюв11790 0.0 1028212
16:00−13вюв008770 0.0 102743
19:00−17вюв118985 0.0 102920
22:00−17вюв118694 0.0 102821
21 января, чт
чт2101:00−16вюв228297 0.0 102624
04:00−14вюв2285100 0.0 102347
07:00−12юв2296100 1.4 102278
10:00−9ю2496100 1.9 1021118
13:00−3зюз3795100 3.4 1018644
16:00−3з2795100 1.4 1018615
19:00−6зюз1197100 2.1 101833
22:00−9юв1297100 0.1 101621
22 января, пт
пт2201:00−8вюв1296100 0.1 101326
04:00−6юв2297100 0.3 100974
07:00−6ююв2496100 0.9 1007165
10:00−5зюз2397100 1.8 1007168
13:00−4зюз2395100 3.4 1007321
16:00−5з2296100 1.7 1007259
19:00−8зсз2297100 3.1 1010101
22:00−10зсз1297100 1.0 101187
23 января, сб
сб2301:00−12з2396100 1.9 1013165
04:00−14з2496100 0.9 1018246
07:00−16зюз2596100 1.8 1022434
10:00−18юз2596100 0.2 1025487
13:00−17зюз1293100 0.7 1023374
16:00−16всв1195100 0.5 1021237
19:00−17ююв0198100 1.4 102233
22:00−16ю2597100 1.1 1024232